カタログに戻る

STARLINK-4697

運用中通信VLEO
NORAD 53726·PAYLOAD·🇺🇸 United States

打ち上げ Sep 5, 2022 から Cape Canaveral Space Force Station

Loading…

次のパス (今後24時間)

TLE

最新Source: CelesTrak SupGP

元期: Sep 14, 2026, 21:49 UTC

1 53726C 22107AC  26257.90951389  .00003754  00000+0  11086-3 0  2575
2 53726  53.1571 111.5111 0001263  90.8034  73.3804 15.34404431    19

AllMySatでSTARLINK-4697をリアルタイム追跡

Download on the App Store